(°C)
(°C)
ЮЮЗ
ЮЮЗ
ЮЮЗ
ЮЮЗ
ЮЗ
ЮЗ
ЮЗ
(km/h)
11-21
12-25
14-29
16-28
19-32
20-35
21-36
(mm)
0
0
0
0
0
0
0
(%)
0
0
0
1
21
34
48

Издигане на слънцето

/ 4.4°
sun-icon
UV 0
07:07
17:05
Последна четвърт на луната (266°)
22:14
14:33

METAR за 51.82°С 39.23°И (UUOO)

Час Условия Температура/
Точка на оросяване
Вятър Видимост Времето Облаци Налягане Промяна Сурови
VFR 4°C / 2°C 240º 8kt >10km - Clouds and Visibility OK 1019 No Significant change. Runway 30: Clear and dry, 1-10% contamination with <1mm, friction coefficient 0.70. UUOO 280430Z 24004MPS CAVOK 04/02 Q1019 R30/010070 NOSIG RMK QFE751
VFR 4°C / 2°C 240º 6kt >10km - Clouds and Visibility OK 1019 No Significant change. Runway 30: Clear and dry, 1-10% contamination with <1mm, friction coefficient 0.70. UUOO 280400Z 24003MPS CAVOK 04/02 Q1019 R30/010070 NOSIG RMK QFE751
VFR 3°C / 2°C 240º 6kt >10km - Clouds and Visibility OK 1019 No Significant change. Runway 30: Clear and dry, 1-10% contamination with <1mm, friction coefficient 0.70. UUOO 280330Z 24003MPS CAVOK 03/02 Q1019 R30/010070 NOSIG RMK QFE751
VFR 4°C / 2°C 240º 6kt >10km - Clouds and Visibility OK 1019 No Significant change. Runway 30: Clear and dry, 1-10% contamination with <1mm, friction coefficient 0.70. UUOO 280300Z 24003MPS CAVOK 04/02 Q1019 R30/010070 NOSIG RMK QFE751
VFR 3°C / 2°C 250º 4kt >10km - Clouds and Visibility OK 1019 No Significant change. Runway 30: Clear and dry, 1-10% contamination with <1mm, friction coefficient 0.70. UUOO 280230Z 25002MPS CAVOK 03/02 Q1019 R30/010070 NOSIG RMK QFE751
VFR 3°C / 2°C 260º 4kt >10km - Clouds and Visibility OK 1019 No Significant change. Runway 30: Clear and dry, 1-10% contamination with <1mm, friction coefficient 0.70. UUOO 280200Z 26002MPS CAVOK 03/02 Q1019 R30/010070 NOSIG RMK QFE751
VFR 3°C / 1°C 240º 6kt >10km - Clouds and Visibility OK 1019 No Significant change. Runway 30: Clear and dry, 1-10% contamination with <1mm, friction coefficient 0.70. UUOO 280130Z 24003MPS CAVOK 03/01 Q1019 R30/010070 NOSIG RMK QFE751
VFR 4°C / 2°C 250º 4kt >10km - Clouds and Visibility OK 1019 No Significant change. Runway 30: Clear and dry, 1-10% contamination with <1mm, friction coefficient 0.70. UUOO 280100Z 25002MPS CAVOK 04/02 Q1019 R30/010070 NOSIG RMK QFE751
VFR 5°C / 2°C 270º 6kt >10km - Clouds and Visibility OK 1020 No Significant change. Runway 30: Clear and dry, 1-10% contamination with <1mm, friction coefficient 0.70. UUOO 280030Z 27003MPS CAVOK 05/02 Q1020 R30/010070 NOSIG RMK QFE751
VFR 6°C / 2°C 270º 8kt >10km - Clouds and Visibility OK 1020 No Significant change. Runway 30: Clear and dry, 1-10% contamination with <1mm, friction coefficient 0.70. UUOO 272300Z 27004MPS CAVOK 06/02 Q1020 R30/010070 NOSIG RMK QFE751
VFR 6°C / 2°C 260º 6kt >10km - Clouds and Visibility OK 1020 No Significant change. Runway 30: Clear and dry, 1-10% contamination with <1mm, friction coefficient 0.70. UUOO 272230Z 26003MPS CAVOK 06/02 Q1020 R30/010070 NOSIG RMK QFE751
VFR 7°C / 2°C 260º 8kt >10km - Clouds and Visibility OK 1020 No Significant change. Runway 30: Clear and dry, 1-10% contamination with <1mm, friction coefficient 0.70. UUOO 272200Z 26004MPS CAVOK 07/02 Q1020 R30/010070 NOSIG RMK QFE751
VFR 7°C / 2°C 260º 8kt >10km - Broken Clouds 4900ft 1019 No Significant change. Runway 30: Clear and dry, 1-10% contamination with <1mm, friction coefficient 0.70. UUOO 272130Z 26004MPS 9999 BKN049 07/02 Q1019 R30/010070 NOSIG RMK QFE751
VFR 7°C / 2°C 250º 8kt >10km - Clouds and Visibility OK 1020 No Significant change. Runway 30: Clear and dry, 1-10% contamination with <1mm, friction coefficient 0.70. UUOO 272100Z 25004MPS CAVOK 07/02 Q1020 R30/010070 NOSIG RMK QFE751
VFR 7°C / 1°C 250º 8kt >10km - Clouds and Visibility OK 1020 No Significant change. Runway 30: Clear and dry, 1-10% contamination with <1mm, friction coefficient 0.70. UUOO 272030Z 25004MPS CAVOK 07/01 Q1020 R30/010070 NOSIG RMK QFE751
MVFR 7°C / 0°C 250º 8kt >10km - Broken Clouds 2700ft 1020 No Significant change. Runway 30: Clear and dry, 1-10% contamination with <1mm, friction coefficient 0.70. UUOO 272000Z 25004MPS 9999 BKN027 07/00 Q1020 R30/010070 NOSIG RMK QFE751
VFR 7°C / -1°C 240º 6kt >10km - Clouds and Visibility OK 1020 No Significant change. Runway 30: Clear and dry, 1-10% contamination with <1mm, friction coefficient 0.70. UUOO 271930Z 24003MPS CAVOK 07/M01 Q1020 R30/010070 NOSIG RMK QFE751
VFR 7°C / -1°C 250º 8kt >10km - Clouds and Visibility OK 1020 No Significant change. Runway 30: Clear and dry, 1-10% contamination with <1mm, friction coefficient 0.70. UUOO 271900Z 25004MPS CAVOK 07/M01 Q1020 R30/010070 NOSIG RMK QFE751
VFR 7°C / -2°C 250º 10kt >10km - Clouds and Visibility OK 1020 No Significant change. Runway 30: Clear and dry, 1-10% contamination with <1mm, friction coefficient 0.70. UUOO 271830Z 25005MPS CAVOK 07/M02 Q1020 R30/010070 NOSIG RMK QFE751
MVFR 7°C / -2°C 240º 8kt >10km - Broken Clouds 3000ft 1020 No Significant change. Runway 30: Clear and dry, 1-10% contamination with <1mm, friction coefficient 0.70. UUOO 271800Z 24004MPS 9999 BKN030 07/M02 Q1020 R30/010070 NOSIG RMK QFE751
VFR 7°C / -3°C 240º 8kt >10km - Broken Clouds 3300ft 1020 No Significant change. Runway 30: Clear and dry, 1-10% contamination with <1mm, friction coefficient 0.70. UUOO 271730Z 24004MPS 9999 BKN033 07/M03 Q1020 R30/010070 NOSIG RMK QFE751
VFR 6°C / -4°C 220º 6kt >10km - Broken Clouds 4400ft 1020 No Significant change. Runway 30: Clear and dry, 1-10% contamination with <1mm, friction coefficient 0.70. UUOO 271700Z 22003MPS 9999 BKN044 06/M04 Q1020 R30/010070 NOSIG RMK QFE752
VFR 6°C / -4°C 230º 6kt >10km - Clouds and Visibility OK 1020 No Significant change. Runway 30: Clear and dry, 1-10% contamination with <1mm, friction coefficient 0.70. UUOO 271630Z 23003MPS CAVOK 06/M04 Q1020 R30/010070 NOSIG RMK QFE752
VFR 7°C / -5°C 220º 6kt >10km - Clouds and Visibility OK 1020 No Significant change. Runway 30: Clear and dry, 1-10% contamination with <1mm, friction coefficient 0.70. UUOO 271600Z 22003MPS CAVOK 07/M05 Q1020 R30/010070 NOSIG RMK QFE752

VFR

4°C / 2°C

[Още]
Вятър 240º 8kt
Видимост >10km
Времето -
Облаци Clouds and Visibility OK
Налягане 1019
Промяна No Significant change. Runway 30: Clear and dry, 1-10% contamination with <1mm, friction coefficient 0.70.
Сурови UUOO 280430Z 24004MPS CAVOK 04/02 Q1019 R30/010070 NOSIG RMK QFE751

VFR

4°C / 2°C

[Още]
Вятър 240º 6kt
Видимост >10km
Времето -
Облаци Clouds and Visibility OK
Налягане 1019
Промяна No Significant change. Runway 30: Clear and dry, 1-10% contamination with <1mm, friction coefficient 0.70.
Сурови UUOO 280400Z 24003MPS CAVOK 04/02 Q1019 R30/010070 NOSIG RMK QFE751

VFR

3°C / 2°C

[Още]
Вятър 240º 6kt
Видимост >10km
Времето -
Облаци Clouds and Visibility OK
Налягане 1019
Промяна No Significant change. Runway 30: Clear and dry, 1-10% contamination with <1mm, friction coefficient 0.70.
Сурови UUOO 280330Z 24003MPS CAVOK 03/02 Q1019 R30/010070 NOSIG RMK QFE751

VFR

4°C / 2°C

[Още]
Вятър 240º 6kt
Видимост >10km
Времето -
Облаци Clouds and Visibility OK
Налягане 1019
Промяна No Significant change. Runway 30: Clear and dry, 1-10% contamination with <1mm, friction coefficient 0.70.
Сурови UUOO 280300Z 24003MPS CAVOK 04/02 Q1019 R30/010070 NOSIG RMK QFE751

VFR

3°C / 2°C

[Още]
Вятър 250º 4kt
Видимост >10km
Времето -
Облаци Clouds and Visibility OK
Налягане 1019
Промяна No Significant change. Runway 30: Clear and dry, 1-10% contamination with <1mm, friction coefficient 0.70.
Сурови UUOO 280230Z 25002MPS CAVOK 03/02 Q1019 R30/010070 NOSIG RMK QFE751

VFR

3°C / 2°C

[Още]
Вятър 260º 4kt
Видимост >10km
Времето -
Облаци Clouds and Visibility OK
Налягане 1019
Промяна No Significant change. Runway 30: Clear and dry, 1-10% contamination with <1mm, friction coefficient 0.70.
Сурови UUOO 280200Z 26002MPS CAVOK 03/02 Q1019 R30/010070 NOSIG RMK QFE751

VFR

3°C / 1°C

[Още]
Вятър 240º 6kt
Видимост >10km
Времето -
Облаци Clouds and Visibility OK
Налягане 1019
Промяна No Significant change. Runway 30: Clear and dry, 1-10% contamination with <1mm, friction coefficient 0.70.
Сурови UUOO 280130Z 24003MPS CAVOK 03/01 Q1019 R30/010070 NOSIG RMK QFE751

VFR

4°C / 2°C

[Още]
Вятър 250º 4kt
Видимост >10km
Времето -
Облаци Clouds and Visibility OK
Налягане 1019
Промяна No Significant change. Runway 30: Clear and dry, 1-10% contamination with <1mm, friction coefficient 0.70.
Сурови UUOO 280100Z 25002MPS CAVOK 04/02 Q1019 R30/010070 NOSIG RMK QFE751

VFR

5°C / 2°C

[Още]
Вятър 270º 6kt
Видимост >10km
Времето -
Облаци Clouds and Visibility OK
Налягане 1020
Промяна No Significant change. Runway 30: Clear and dry, 1-10% contamination with <1mm, friction coefficient 0.70.
Сурови UUOO 280030Z 27003MPS CAVOK 05/02 Q1020 R30/010070 NOSIG RMK QFE751

VFR

6°C / 2°C

[Още]
Вятър 270º 8kt
Видимост >10km
Времето -
Облаци Clouds and Visibility OK
Налягане 1020
Промяна No Significant change. Runway 30: Clear and dry, 1-10% contamination with <1mm, friction coefficient 0.70.
Сурови UUOO 272300Z 27004MPS CAVOK 06/02 Q1020 R30/010070 NOSIG RMK QFE751

VFR

6°C / 2°C

[Още]
Вятър 260º 6kt
Видимост >10km
Времето -
Облаци Clouds and Visibility OK
Налягане 1020
Промяна No Significant change. Runway 30: Clear and dry, 1-10% contamination with <1mm, friction coefficient 0.70.
Сурови UUOO 272230Z 26003MPS CAVOK 06/02 Q1020 R30/010070 NOSIG RMK QFE751

VFR

7°C / 2°C

[Още]
Вятър 260º 8kt
Видимост >10km
Времето -
Облаци Clouds and Visibility OK
Налягане 1020
Промяна No Significant change. Runway 30: Clear and dry, 1-10% contamination with <1mm, friction coefficient 0.70.
Сурови UUOO 272200Z 26004MPS CAVOK 07/02 Q1020 R30/010070 NOSIG RMK QFE751

VFR

7°C / 2°C

[Още]
Вятър 260º 8kt
Видимост >10km
Времето -
Облаци Broken Clouds 4900ft
Налягане 1019
Промяна No Significant change. Runway 30: Clear and dry, 1-10% contamination with <1mm, friction coefficient 0.70.
Сурови UUOO 272130Z 26004MPS 9999 BKN049 07/02 Q1019 R30/010070 NOSIG RMK QFE751

VFR

7°C / 2°C

[Още]
Вятър 250º 8kt
Видимост >10km
Времето -
Облаци Clouds and Visibility OK
Налягане 1020
Промяна No Significant change. Runway 30: Clear and dry, 1-10% contamination with <1mm, friction coefficient 0.70.
Сурови UUOO 272100Z 25004MPS CAVOK 07/02 Q1020 R30/010070 NOSIG RMK QFE751

VFR

7°C / 1°C

[Още]
Вятър 250º 8kt
Видимост >10km
Времето -
Облаци Clouds and Visibility OK
Налягане 1020
Промяна No Significant change. Runway 30: Clear and dry, 1-10% contamination with <1mm, friction coefficient 0.70.
Сурови UUOO 272030Z 25004MPS CAVOK 07/01 Q1020 R30/010070 NOSIG RMK QFE751

MVFR

7°C / 0°C

[Още]
Вятър 250º 8kt
Видимост >10km
Времето -
Облаци Broken Clouds 2700ft
Налягане 1020
Промяна No Significant change. Runway 30: Clear and dry, 1-10% contamination with <1mm, friction coefficient 0.70.
Сурови UUOO 272000Z 25004MPS 9999 BKN027 07/00 Q1020 R30/010070 NOSIG RMK QFE751

VFR

7°C / -1°C

[Още]
Вятър 240º 6kt
Видимост >10km
Времето -
Облаци Clouds and Visibility OK
Налягане 1020
Промяна No Significant change. Runway 30: Clear and dry, 1-10% contamination with <1mm, friction coefficient 0.70.
Сурови UUOO 271930Z 24003MPS CAVOK 07/M01 Q1020 R30/010070 NOSIG RMK QFE751

VFR

7°C / -1°C

[Още]
Вятър 250º 8kt
Видимост >10km
Времето -
Облаци Clouds and Visibility OK
Налягане 1020
Промяна No Significant change. Runway 30: Clear and dry, 1-10% contamination with <1mm, friction coefficient 0.70.
Сурови UUOO 271900Z 25004MPS CAVOK 07/M01 Q1020 R30/010070 NOSIG RMK QFE751

VFR

7°C / -2°C

[Още]
Вятър 250º 10kt
Видимост >10km
Времето -
Облаци Clouds and Visibility OK
Налягане 1020
Промяна No Significant change. Runway 30: Clear and dry, 1-10% contamination with <1mm, friction coefficient 0.70.
Сурови UUOO 271830Z 25005MPS CAVOK 07/M02 Q1020 R30/010070 NOSIG RMK QFE751

MVFR

7°C / -2°C

[Още]
Вятър 240º 8kt
Видимост >10km
Времето -
Облаци Broken Clouds 3000ft
Налягане 1020
Промяна No Significant change. Runway 30: Clear and dry, 1-10% contamination with <1mm, friction coefficient 0.70.
Сурови UUOO 271800Z 24004MPS 9999 BKN030 07/M02 Q1020 R30/010070 NOSIG RMK QFE751

VFR

7°C / -3°C

[Още]
Вятър 240º 8kt
Видимост >10km
Времето -
Облаци Broken Clouds 3300ft
Налягане 1020
Промяна No Significant change. Runway 30: Clear and dry, 1-10% contamination with <1mm, friction coefficient 0.70.
Сурови UUOO 271730Z 24004MPS 9999 BKN033 07/M03 Q1020 R30/010070 NOSIG RMK QFE751

VFR

6°C / -4°C

[Още]
Вятър 220º 6kt
Видимост >10km
Времето -
Облаци Broken Clouds 4400ft
Налягане 1020
Промяна No Significant change. Runway 30: Clear and dry, 1-10% contamination with <1mm, friction coefficient 0.70.
Сурови UUOO 271700Z 22003MPS 9999 BKN044 06/M04 Q1020 R30/010070 NOSIG RMK QFE752

VFR

6°C / -4°C

[Още]
Вятър 230º 6kt
Видимост >10km
Времето -
Облаци Clouds and Visibility OK
Налягане 1020
Промяна No Significant change. Runway 30: Clear and dry, 1-10% contamination with <1mm, friction coefficient 0.70.
Сурови UUOO 271630Z 23003MPS CAVOK 06/M04 Q1020 R30/010070 NOSIG RMK QFE752

VFR

7°C / -5°C

[Още]
Вятър 220º 6kt
Видимост >10km
Времето -
Облаци Clouds and Visibility OK
Налягане 1020
Промяна No Significant change. Runway 30: Clear and dry, 1-10% contamination with <1mm, friction coefficient 0.70.
Сурови UUOO 271600Z 22003MPS CAVOK 07/M05 Q1020 R30/010070 NOSIG RMK QFE752

TAF за 51.82°С 39.23°И (UUOO)

From till


From till Wind 240º 6kt. Visibility 10km or more. Broken Clouds 3000ft.
Temporarly from till Light Showers Rain . Broken Clouds 1600ft.

Сурови: TAF UUOO 280200Z 2803/2812 24003MPS 9999 BKN030 TEMPO 2809/2812 -SHRA BKN016CB

Актуални сателитни и дъждовни снимки за 51.82°С 39.23°И

Маркерът за локация е поставен върху 51.82°С 39.23°И. [Още]

Сателитното изображение в реално време съчетава видимата светлина през деня с инфрачервеното лъчение през нощта. През нощта изображението не е тъмно, тъй като инфрачервеното лъчение може да открива температурни разлики. За съжаление ниските облаци и мъглата са трудни за разграничаване от температурите на земята и затова могат да бъдат почти невидими през нощта. Сателитните изображения на Meteosat за Европа се актуализират в реално време на всеки 5 минути. Изображенията GOES-16/GOES-17 (Северна и Южна Америка) и Химавари (Азия) се актуализират на всеки 10 минути.

Всички права запазени 2021 EUMETSAT / meteoblue. / Всички права запазени 2021 meteoblue

Радар и валежи в момента за 51.82°С 39.23°И

Ситен дъжд
Лек
Умерен
Тежък
Много тежък
Аве

Маркерът за локация обозначава 51.82°С 39.23°И. Анимацията показва Радара за валежи за последния час, както и прогноза за 1h. Дъждът или лекият сняг може да са невидими за радара. Интензивността на валежите е обозначена с цветни кодове, вариращи от светлосиньо до оранжево.